Weather History for Buffalo, WY

Change the Weather History Date:

Thursday, December 20, 2012

  Actual Average Record
Temperature  
Mean Temperature 27 °F 25 °F  
Max Temperature 43 °F 36 °F 56 °F (2003)
Min Temperature 10 °F 15 °F -22 °F (1998)
Degree Days  
Heating Degree Days 38 40  
Month to date heating degree days 672 788  
Since 1 July heating degree days 2229 2622  
Moisture  
Dew Point 2 °F    
Average Humidity 33    
Maximum Humidity 45    
Minimum Humidity 20    
Precipitation  
Precipitation 0.00 in 0.01 in 0.24 in (1999)
Month to date precipitation 0.01 0.28  
Year to date precipitation 8.83 13.33  
Sea Level Pressure  
Sea Level Pressure 30.11 in    
Wind  
Wind Speed 4 mph (SSW)    
Max Wind Speed 13 mph    
Max Gust Speed 17 mph    
Visibility 10 miles    
Events      
T = Trace of Precipitation, MM = Missing Value Source: NWS Daily Summary

Daily Weather History Graph

Daily Weather History Graph

Search for Another Location

Airport:

Trip Planner

Search our weather history database for the weather conditions in past years. The results will help you decide how hot, cold, wet, or windy it might be!

Date:

Astronomy

Dec. 20, 2012 Rise Set
Actual Time 7:39 AM MST 4:30 PM MST
Civil Twilight 7:06 AM MST 5:03 PM MST
Nautical Twilight 6:29 AM MST 5:40 PM MST
Astronomical Twilight 5:53 AM MST 6:15 PM MST
Moon 12:00 PM MST (12/20) 12:17 AM MST (12/20)
Length of Visible Light 9h 57m
Length of Day
8h 50m
First Quarter, 56% of the Moon is Illuminated
Dec 20
First Quarter
Dec 28
Full
Jan 4
Last Quarter
Jan 11
New
Jan 18
First Quarter

Hourly Weather History & Observations

Time (MST) Temp. Windchill Dew Point Humidity Pressure Visibility Wind Dir Wind Speed Gust Speed Precip Events Conditions
12:53 AM 15.1 °F 6.4 °F -9.0 °F 34% 30.14 in 10.0 mi SW 5.8 mph - N/A   Clear
1:53 AM 12.0 °F 4.1 °F -8.0 °F 41% 30.17 in 10.0 mi SW 4.6 mph - N/A   Clear
2:53 AM 17.1 °F 8.7 °F -7.1 °F 34% 30.15 in 10.0 mi SSW 5.8 mph - N/A   Clear
3:53 AM 16.0 °F 7.4 °F -4.0 °F 41% 30.14 in 10.0 mi SSW 5.8 mph - N/A   Clear
4:53 AM 21.0 °F 9.9 °F -2.0 °F 36% 30.12 in 10.0 mi South 10.4 mph - N/A   Clear
5:53 AM 21.0 °F 14.6 °F -2.9 °F 35% 30.13 in 10.0 mi SW 4.6 mph - N/A   Clear
6:53 AM 19.0 °F - -2.0 °F 40% 30.14 in 10.0 mi Calm Calm - N/A   Clear
7:53 AM 19.9 °F 13.4 °F 1.0 °F 44% 30.17 in 10.0 mi WSW 4.6 mph - N/A   Clear
8:53 AM 23.0 °F - 3.9 °F 44% 30.16 in 10.0 mi Calm Calm - N/A   Clear
9:53 AM 32.0 °F - 1.9 °F 28% 30.15 in 10.0 mi Calm Calm - N/A   Clear
10:53 AM 30.0 °F 26.5 °F 5.0 °F 35% 30.15 in 10.0 mi ESE 3.5 mph - N/A   Clear
11:53 AM 35.1 °F - 6.1 °F 30% 30.12 in 10.0 mi Calm Calm - N/A   Clear
12:53 PM 39.9 °F 36.7 °F 6.1 °F 25% 30.10 in 10.0 mi NE 4.6 mph - N/A   Clear
1:53 PM 42.1 °F 39.2 °F 5.0 °F 22% 30.10 in 10.0 mi East 4.6 mph - N/A   Clear
2:53 PM 42.1 °F 40.2 °F 6.1 °F 23% 30.09 in 10.0 mi ENE 3.5 mph - N/A   Clear
3:53 PM 37.0 °F 32.4 °F 6.1 °F 28% 30.09 in 10.0 mi South 5.8 mph - N/A   Clear
4:53 PM 37.0 °F 34.5 °F 5.0 °F 26% 30.08 in 10.0 mi SSW 3.5 mph - N/A   Clear
5:53 PM 36.0 °F - 5.0 °F 27% 30.07 in 10.0 mi Calm Calm - N/A   Clear
6:53 PM 28.9 °F 23.9 °F 6.1 °F 38% 30.11 in 10.0 mi WNW 4.6 mph - N/A   Clear
7:53 PM 30.9 °F 25.2 °F 5.0 °F 33% 30.09 in 10.0 mi NNW 5.8 mph - N/A   Clear
8:53 PM 30.0 °F 25.2 °F 6.1 °F 36% 30.09 in 10.0 mi Variable 4.6 mph - N/A   Clear
9:53 PM 33.1 °F - 5.0 °F 31% 30.04 in 10.0 mi Calm Calm - N/A   Clear
10:53 PM 34.0 °F 29.8 °F 3.9 °F 28% 30.06 in 10.0 mi WNW 4.6 mph - N/A   Clear
11:53 PM 35.1 °F 29.3 °F 3.9 °F 27% 30.04 in 10.0 mi SSE 6.9 mph - N/A   Clear